Location: Little Stukeley
(52.3500°N, 0.2167°W)
Time: 03:09:45
(UTC+00:00)

Daily predictions for brighter satellites

Satellite Brightness Start Highest point End
(mag) Time Altitude Azimuth Time Altitude Azimuth Time Altitude Azimuth
USA 234 4.5 03:16:44 10° ENE 03:20:27 37° ENE 03:20:27 37° ENE
Cosmos 2082 Rocket 4.1 03:54:55 22° NNE 03:54:55 22° NNE 03:56:50 10° NNE
ACS3 Solar Sail 4.1 03:47:27 10° N 03:47:55 12° N 03:47:55 12° N
ADEOS Rocket 4.5 03:46:44 10° NNE 03:51:05 37° N 03:51:05 37° N
ATLAS 3B R/B 3.7 03:59:25 42° N 04:00:14 43° NNE 04:07:32 10° E
Nadezhda 4 Rocket 4.5 04:34:26 48° N 04:34:26 48° N 04:38:48 10° N
Cosmos 2360 Rocket 2.6 04:35:31 54° SSE 04:35:31 54° SSE 04:39:48 10° SSE
ATLAS 2AS CENTAUR R/B 4.4 04:36:08 10° S 04:42:06 31° ESE 04:47:57 10° ENE
SeaSat 1 3.5 04:37:46 10° NNE 04:40:46 38° NNE 04:40:46 38° NNE
Cosmos 2195 Rocket 4.4 04:40:51 10° S 04:47:09 86° E 04:53:32 10° N
Cosmos 2219 Rocket 2.3 04:47:43 68° NNE 04:48:14 73° ENE 04:53:51 10° SE
Cosmos 2237 Rocket 4.1 04:46:25 17° N 04:48:47 22° NNE 04:53:06 10° E
NOSS 3-1 (A) 4.1 04:53:12 54° WSW 04:53:25 54° SW 05:01:51 10° SSE
Cosmos 2333 Rocket 3.3 04:57:03 32° SSW 04:57:03 32° SSW 05:00:14 10° S
COSMO-SKYMED 1 3.1 04:53:19 10° SE 04:57:07 52° E 04:57:07 52° E
IRS-1D 4.1 04:54:57 10° NNE 04:59:55 56° ESE 05:04:57 10° S
Cosmos 2322 Rocket 2.6 05:02:16 48° SSW 05:02:16 48° SSW 05:06:37 10° S
USA 234 3.3 04:59:50 10° ENE 05:06:20 65° NNW 05:07:47 52° WNW
Cosmos 192 4.4 05:08:12 59° N 05:09:03 74° ENE 05:13:56 10° SSE
Cosmos 2322 4.2 05:16:04 28° NNW 05:18:59 57° NE 05:24:34 10° SE
Helios 1A Rocket 3.6 05:16:02 10° SSE 05:18:10 37° SSE 05:18:10 37° SSE
USA 229 4.0 05:17:38 33° NW 05:21:16 73° NE 05:29:18 10° SE
USA 229 DEB 4.0 05:17:43 33° NW 05:21:21 73° NE 05:29:23 10° SE
Cosmos 158 Rocket 4.1 05:19:35 10° SSW 05:24:52 78° ESE 05:30:03 10° NNE
Cosmos 1814 Rocket 3.9 05:20:46 13° SSW 05:25:29 90° E 05:30:51 10° NNE
Cosmos 2333 4.3 05:27:06 49° W 05:27:36 51° WSW 05:33:03 10° S
SJ-11-01 4.2 05:25:41 10° N 05:30:19 60° WNW 05:30:42 58° W
SL-16 R/B 4.1 05:35:16 13° SW 05:35:16 13° SW 05:36:09 10° SSW
Cosmos 1626 Rocket 3.5 05:27:55 10° S 05:32:19 83° E 05:36:43 10° NNE
Cosmos 1627 Rocket 4.4 05:26:31 10° SSW 05:32:33 60° WNW 05:38:41 10° N
ACS3 Solar Sail 3.9 05:31:52 10° NNW 05:31:54 10° NNW 05:31:54 10° NNW
CZ-4 R/B 3.6 05:31:01 10° NNE 05:35:41 86° WNW 05:40:17 10° SSW
Cosmos 2082 Rocket 3.4 05:36:45 25° NNW 05:36:45 25° NNW 05:40:37 10° NNE
Meteor 2-6 Rocket 4.2 05:31:36 14° NNW 05:36:45 74° W 05:42:38 10° S
Cosmos 1437 Rocket 2.8 05:36:30 44° NNE 05:37:23 63° ENE 05:40:50 10° SSE
Cosmos 2151 3.8 05:34:31 10° S 05:38:28 50° E 05:42:28 10° NNE
Cosmos 1818 4.5 05:36:01 25° NNW 05:38:46 42° NNE 05:43:55 10° ESE
COSMOS 2406 3.9 05:44:42 33° NW 05:44:56 33° NW 05:50:04 10° NNE
IRIDIUM 104 4.2 05:40:39 10° S 05:45:53 88° W 05:51:10 10° N
COSMOS 2428 2.8 05:42:10 22° NNW 05:45:58 74° ENE 05:51:40 10° SE
BREEZE-M DEB (TANK) 2.9 05:45:56 50° SSW 05:46:18 55° S 05:51:09 10° E
Cosmos 2026 Rocket 4.1 05:40:51 10° SW 05:46:40 46° WNW 05:52:36 10° N
BREEZE-M DEB (TANK) 3.1 05:48:00 49° S 05:48:00 49° S 05:50:10 10° E
Cosmos 1743 2.2 05:45:58 10° S 05:49:12 85° E 05:52:28 10° NNE
NOSS 0 Rocket 4.2 05:44:34 19° NNW 05:49:13 66° NE 05:55:25 10° SE
SL-08 ROCKET BODY 4.2 05:45:58 10° S 05:51:49 84° W 05:57:44 10° N
ATLAS 3B R/B 3.0 05:46:39 24° NW 05:51:56 88° NE 05:59:30 10° SE
KORONAS-FOTON 3.6 05:50:29 31° N 05:51:58 74° E 05:55:20 10° SSE
SL-24 R/B 4.3 05:46:59 10° N 05:52:04 59° WNW 05:56:28 10° SSW
IRIDIUM 114 4.2 05:49:49 10° S 05:55:02 75° W 06:00:18 10° N
Cosmos 2285 Rocket 4.4 05:53:04 29° WNW 05:55:35 40° WSW 06:01:29 10° S
Meteor 2-3 Rocket 4.4 05:55:35 31° WNW 05:55:52 32° WNW 06:00:53 10° N
CZ-2C R/B 4.2 05:54:06 10° N 05:55:36 16° NNW 05:55:36 16° NNW
Cosmos 2221 2.3 05:57:19 24° NNW 05:59:40 65° W 06:03:45 10° S
Cosmos 1707 2.0 05:58:58 42° NNW 05:59:54 86° W 06:03:02 10° S
Cosmos 1812 Rocket 3.5 06:01:13 19° NNW 06:04:13 62° W 06:08:30 10° S
IRIDIUM 103 4.3 05:59:03 10° SSW 06:04:14 64° W 06:09:27 10° N
IGS 5A 3.3 06:06:58 10° NNE 06:11:00 86° E 06:15:01 10° SSW
Cosmos 2315 Rocket 4.1 06:04:52 10° N 06:11:16 82° E 06:17:34 10° SSE
Cosmos 1602 Rocket 3.5 06:07:49 10° SSW 06:12:15 74° WNW 06:16:42 10° N
ATLAS 5 CENTAUR R/B 3.1 06:11:08 15° NNW 06:12:27 17° NNE 06:15:15 10° NE
Thor Agena Rocket 4.4 06:08:08 10° NNE 06:13:05 52° E 06:17:59 10° S
SL-16 R/B 3.9 06:09:46 10° NNW 06:14:30 26° NE 06:19:13 10° E
Cosmos 1553 Rocket 4.4 06:09:52 10° NNW 06:15:48 42° W 06:21:45 10° SSW
ISS -1.3 06:13:52 10° SSW 06:16:32 22° SSE 06:19:14 10° E
S3M 3.9 06:11:02 10° NNW 06:17:12 75° W 06:23:17 10° S
Cosmos 2360 Rocket 3.5 06:17:19 19° W 06:17:25 19° W 06:21:13 10° SW
Cosmos 2297 Rocket 4.2 06:13:15 10° SSE 06:18:07 31° ESE 06:23:01 10° NE
SeaSat 1 3.6 06:15:46 10° NNE 06:19:30 22° NW 06:20:24 21° NW
Cosmos 1125 Rocket 4.0 06:16:38 21° NW 06:19:34 40° WSW 06:24:23 10° S
Cosmos 1980 4.0 06:16:28 12° NNW 06:21:48 67° NE 06:27:26 10° SE
Meteor 1-20 Rocket 4.2 06:17:31 10° SSW 06:23:07 89° WNW 06:28:41 10° NNE
Okean 1-7 Rocket 3.5 06:23:02 10° SSW 06:27:31 75° W 06:31:59 10° N
Meteor 1-27 Rocket 3.7 06:24:37 10° NNW 06:30:29 80° W 06:36:10 10° S
Meteor 2-4 Rocket 3.9 06:25:15 10° N 06:30:42 75° ENE 06:36:16 10° SSE
Cosmos 1655 Rocket 4.4 06:25:06 10° S 06:31:22 70° E 06:37:37 10° NNE
Cosmos 2219 Rocket 3.3 06:29:27 19° WNW 06:31:38 24° WSW 06:36:00 10° SSW
ATLAS 2AS CENTAUR R/B 2.7 06:25:24 10° SW 06:32:26 82° NW 06:39:19 10° NE
Cosmos 883 Rocket 4.5 06:26:27 10° NNW 06:32:44 72° W 06:38:54 10° S
NOSS 5 (C) 4.3 06:30:45 22° NW 06:32:51 81° SW 06:36:07 10° SE
COSMO-SKYMED 1 3.8 06:29:55 10° SW 06:32:56 20° W 06:33:26 19° W
BREEZE-M DEB (TANK) 4.1 06:32:18 10° SW 06:33:01 12° SSW 06:33:57 10° S
Cosmos 2237 Rocket 2.4 06:28:14 10° NNW 06:33:48 74° ENE 06:39:26 10° SE
Cosmos 2208 Rocket 4.3 06:29:27 10° SSW 06:34:39 73° ESE 06:39:49 10° NNE
Cosmos 972 Rocket 4.5 06:30:34 10° NNW 06:36:59 63° WSW 06:42:40 10° S
Cosmos 2298 Rocket 4.0 06:32:05 10° NNW 06:37:22 72° WSW 06:42:38 10° SSE
Cosmos 1953 Rocket 4.0 06:33:24 10° S 06:37:42 64° E 06:42:04 10° NNE
ARIANE 6 FM1 Upper Stage 3.8 06:34:41 10° SSW 06:38:32 45° SE 06:42:20 10° ENE
IRS-1D 4.3 06:34:34 10° N 06:38:47 28° WNW 06:43:04 10° WSW
Cosmos 1076 Rocket 3.6 06:38:26 10° S 06:42:39 78° E 06:46:56 10° NNE
USA 81 4.2 06:37:30 10° S 06:42:45 80° E 06:48:02 10° N
USA 290 2.9 06:39:39 10° SSW 06:42:49 59° ESE 06:46:01 10° NNE
Cosmos 2322 Rocket 4.1 06:44:06 10° W 06:44:06 10° W 06:44:53 10° WSW
Cosmos 1825 Rocket 3.5 06:40:03 10° SSW 06:44:27 69° WNW 06:48:51 10° N
Cosmos 2266 Rocket 4.1 06:40:33 10° SSW 06:46:48 58° WNW 06:52:59 10° N
Cosmos 1238 Rocket 2.7 06:46:19 15° NNW 06:48:19 33° W 06:51:01 10° SSW
USA 234 3.5 06:42:32 10° E 06:49:01 63° N 06:55:08 12° WNW
Cosmos 1484 Rocket 3.2 06:47:40 10° N 06:50:39 29° WNW 06:53:35 10° SW
BREEZE M DEB (TANK) 3.3 06:48:51 10° SW 06:51:29 48° SSE 06:57:29 10° E
YAOGAN 1 4.5 06:51:05 10° NNE 06:54:58 33° E 06:58:48 10° SSE
Meteor 1-5 Rocket 4.1 06:54:44 10° SSW 07:00:06 87° W 07:05:26 10° NNE
ARIANE 5 R/B 2.6 06:55:25 10° NNE 07:00:41 87° ESE 07:05:55 10° SSW
AQUARIUS 4.2 06:56:19 10° NNE 07:00:46 83° ESE 07:05:10 10° SSW
SJ-12 3.7 06:58:19 10° NNE 07:02:10 78° WNW 07:05:58 10° SSW
Cosmos 2344 3.7 06:57:26 10° SW 07:05:03 78° SE 07:12:21 10° NE
Cosmos 1842 4.3 07:05:14 10° NW 07:07:44 20° W 07:10:11 10° SW
Cosmos 2227 Rocket 4.2 07:04:57 10° S 07:09:58 34° ESE 07:14:59 10° NE
Cosmos 1437 Rocket 4.5 07:10:33 10° WNW 07:11:45 12° W 07:13:00 10° WSW
Meteor 1-25 Rocket 4.5 07:07:23 10° SSW 07:13:02 52° WNW 07:18:45 10° N
Cosmos 2151 4.2 07:12:30 10° WSW 07:15:34 20° WNW 07:18:41 10° NNW
CORIOLIS 4.3 07:12:30 10° N 07:17:45 54° WNW 07:23:00 10° SW
Cosmos 2082 Rocket 4.1 07:20:00 10° NW 07:22:12 12° N 07:24:25 10° NNE
Cosmos 1818 3.9 07:17:11 10° NW 07:22:32 56° SW 07:27:49 10° SSE
IRS-1C 4.1 07:17:23 10° NNE 07:22:42 69° WNW 07:27:59 10° SSW
Cosmos 773 Rocket 4.1 07:19:06 10° SW 07:24:06 51° WNW 07:29:09 10° NNE
SMAP 3.5 07:20:19 10° N 07:24:41 41° WNW 07:29:02 10° SW
